Hourly Data Report for March 31, 2021

KUGAARUK CLIMATE
NUNAVUT
Current Station Operator: ECCC - MSC

68°32'15.060" N
89°47'47.020" W
15.80 m
2303094
71407
NBB

Download Data

Hourly Data (March 2021)
Hourly Data Report for March 31, 2021
TIME
LST
Temp Definition
°C
Dew Point Definition
°C
Rel Hum Definition
%
Precip. Amount Definition
mm

Wind Dir Definition
10's deg

Wind Spd Definition
km/h
Visibility Definition
km
Stn Press Definition
kPa
Hmdx Definition


Wind Chill Definition


Weather Definition


00:00 -36.0 -39.7 69 0.0 23 24   101.02   -52 LegendNANA
01:00 -36.1 -39.8 69 0.0 23 26   101.04   -53 LegendNANA
02:00 -36.0 -39.7 69 0.0 24 33   101.04   -54 LegendNANA
03:00 -35.8 -39.5 69 0.0 22 30   101.13   -53 LegendNANA
04:00 -35.7 -39.4 69 0.0 23 41   101.11   -55 LegendNANA
05:00 -35.8 -39.6 69 0.2 23 41   101.12   -55 LegendNANA
06:00 -35.3 -39.1 68 0.0 23 41   101.17   -55 LegendNANA
07:00 -35.3 -39.3 67 0.0 24 41   101.20   -55 LegendNANA
08:00 -34.7 -38.7 67 0.0 24 40   101.28   -54 LegendNANA
09:00 -34.2 -38.2 67 0.0 24 40   101.29   -53 LegendNANA
10:00 -33.6 -37.8 66 0.2 24 43   101.33   -53 LegendNANA
11:00 -32.9 -37.5 64 0.0 24 44   101.40   -52 LegendNANA
12:00 -32.7 -37.1 65 0.0 24 38   101.49   -51 LegendNANA
13:00 -31.7 -36.0 66 0.2 25 37   101.55   -49 LegendNANA
14:00 -31.8 -35.7 68 0.0 24 45   101.54   -51 LegendNANA
15:00 -32.0 -36.0 68 0.0 25 40   101.63   -50 LegendNANA
16:00 -32.1 -35.7 70 0.0 26 40   101.65   -50 LegendNANA
17:00 -32.7 -36.4 70 0.0 25 35   101.71   -50 LegendNANA
18:00 -33.1 -36.7 70 0.0 25 35   101.72   -51 LegendNANA
19:00 -33.8 -37.4 70 0.0 24 33   101.76   -51 LegendNANA
20:00 -34.0 -37.6 70 0.0 24 41   101.72   -53 LegendNANA
21:00 -34.1 -37.8 69 0.0 23 31   101.79   -51 LegendNANA
22:00 -34.3 -38.1 69 0.0 23 26   101.82   -50 LegendNANA
23:00 -34.2 -37.9 69 0.0 23 34   101.82   -52 LegendNANA

Notes on Data Quality.

Legend

  • E = Estimated
  • M = Missing
  • NA = Not Available*
  • [empty] = Indicates an unobserved value
Date modified: